SCP
0 0 0 0 0 0 0 0 0 0 0 0 0 0 0 0 0 0 0 0 0 0 0 0 0 0 0 0 0 0 0 0 0 0 0 0 0 0 0 0 0 0 0 0 0 0 0 0 0 0 0 0 0 0
0 0 0 0 0 0 0 0 0 0 0 0 0 0 0 0 0 0 0 0 0 0 0 0 0 0 0 0 0 0 0 0 0 0 0 0 0 0 -0 -0 -0 0 0 0 0 0 0 0 -0 0 0 0 0 0
0 0 0 0 0 0 0 0 0 0 0 0 0 0 0 0 0 0 0 0 0 0 0 0 0 -0 0 0 0 0 0 0 0 0 0 0 0 0 0 0 0 0 0 0 0 0 0 0 0 0 0 0 0 0
0 0 0 0 0 0 0 0 0 0 0 0 0 0 0 0 0 0 0 0 0 0 0 0 0 0 0 0 0 0 0 0 0 0 0 0 0 0 0 0 0 0 0 0 0 0 0 0 0 0 0 0 0 -0
0 0 0 0 0 0 0 0 0 0 0 0 0 0 0 0 0 0 0 0 0 0 0 0 0 0 0 0 0 0 0 0 0 0 0 0 0 0 0 0 0 0 0 0 0 0 0 0 0 0 0 -0 0 0
0 0 0 0 0 0 0 0 0 0 0 0 0 0 0 0 0 0 0 0 0 0 0 0 0 -0 -0 0 0 0 0 0 0 0 0 0 0 0 0 -0 0 0 0 0 0 0 0 -0 0 0 0 -0 -0 -0
0 0 0 0 0 0 0 0 0 0 0 0 0 0 0 0 0 0 0 0 0 0 0 0 0 0 0 0 0 0 0 0 0 -0 0 -0 0 0 0 0 0 -0 0 0 -0 -0 -0 0 0 0 -0 -0 -0 0
0 0 0 0 0 0 0 0 0 0 0 0 0 0 0 0 0 0 0 0 0 0 0 0 0 0 0 0 0 0 0 0 -0 -0 0 0 0 0 0 -0 -0 -0 0 -0 0 0 -0 -0 -0 -0 -0 -0 -0 -0
0 0 0 0 0 0 0 0 0 0 0 0 0 0 0 0 0 0 0 0 0 0 0 0 0 0 0 0 0 -0 -0 0 0 0 0 0 0 -0 -0 -0 0 0 -0 -0 0 0 -0 -0 0 -0 -0 -0 -0 -0
0 0 0 0 0 0 0 0 0 0 0 0 0 0 0 0 0 0 0 0 0 0 0 0 0 0 0 0 0 -0 -0 -0 -0 0 0 0 -0 0 -0 0 -0 -0 -0 -0 0 -0 0 0 0 0 -0 -0 -0 0
0 0 -0 -0 0 0 0 0 0 0 0 0 0 0 0 0 0 0 0 0 0 0 0 0 0 -0 0 0 0 -0 -0 -0 -0 -0 0 0 -0 0 0 0 -0 -0 -0 0 0 -0 -0 0 -0 -0 0 0 0 -0
0 0 0 0 0 0 0 0 0 0 0 0 0 0 0 0 0 0 0 0 0 0 0 0 -0 0 0 0 -0 0 -0 -0 -0 -0 -0 -0 0 0 0 0 -0 -0 -0 0 0 0 -0 -0 -0 -0 0 -0 -0 -0
0 0 0 0 0 0 0 0 0 0 0 0 0 0 0 0 0 0 0 0 0 -0 0 0 0 0 -0 -0 -0 -0 -0 0 0 -0 -0 0 0 0 0 -0 -0 -0 0 0 0 0 0 0 0 0 -0 -0 -0 -0
0 0 0 0 0 0 0 0 0 0 0 0 0 0 0 0 0 0 0 0 0 0 0 0 0 0 -0 0 0 -0 0 -0 0 0 0 0 0 -0 -0 0 0 0 0 0 0 0 0 0 0 0 0 -0 -0 -0
0 0 0 0 0 -0 -0 -0 -0 0 0 0 0 0 0 0 0 0 0 0 0 0 0 0 0 0 0 0 0 0 -0 0 -0 0 0 0 -0 -0 0 0 0 0 0 0 0 0 0 0 0 0 0 -0 -0 -0
0 0 0 0 0 0 0 0 0 0 0 0 0 0 0 0 0 0 0 0 0 0 0 0 0 0 0 0 0 0 0 -0 0 0 0 0 -0 0 -0 0 0 0 0 0 0 0 0 0 0 0 0 -0 0 0
0 0 0 0 0 0 0 0 0 0 0 0 0 0 0 0 0 0 0 0 0 0 0 0 0 0 0 0 0 0 -0 -0 0 0 0 0 0 -0 0 0 0 0 0 0 0 0 0 0 0 0 0 0 -0 -0
0 0 0 0 0 0 0 0 0 0 0 0 0 0 0 0 0 0 0 0 0 0 0 0 0 0 0 0 0 0 0 -0 0 0 -0 -0 0 -0 0 0 0 0 0 0 0 0 0 0 0 0 0 0 0 0
0 0 0 0 0 0 0 0 0 0 0 0 0 0 0 0 0 0 0 0 0 0 0 0 0 0 0 0 0 0 0 0 -0 -0 -0 -0 -0 -0 0 0 0 -0 0 -0 -0 0 0 0 0 0 0 0 -0 0
0 0 -0 0 0 0 0 0 0 0 0 0 0 0 0 0 0 0 0 0 0 0 0 0 0 0 0 0 0 0 0 -0 0 -0 -0 -0 0 -0 0 0 -0 -0 0 0 0 -0 -0 -0 0 0 0 -0 -0 -0
0 0 0 0 0 0 0 0 0 0 0 0 0 0 0 0 -0 -0 -0 0 0 0 0 0 0 0 0 -0 -0 -0 -0 -0 0 -0 0 0 0 0 0 -0 -0 0 0 0 0 0 -0 0 0 0 0 0 0 -0
0 0 0 0 0 0 -0 0 0 0 0 0 0 0 0 0 0 0 0 0 0 0 0 0 0 -0 -0 -0 -0 -0 -0 -0 -0 -0 0 0 0 0 0 0 -0 0 0 0 0 0 0 0 0 0 0 0 0 -0
0 0 0 0 0 -0 0 0 0 0 0 -0 0 0 0 0 -0 0 -0 0 0 0 0 0 0 0 0 0 0 -0 -0 -0 -0 -0 0 0 0 0 0 0 -0 0 0 0 0 0 0 0 0 0 0 0 0 0
-0 -0 -0 -0 -0 -0 -0 0 0 -0 -0 -0 0 0 0 -0 0 0 0 0 0 0 0 0 0 0 0 0 -0 0 0 -0 0 0 0 0 0 0 0 0 0 0 0 0 0 0 0 0 0 0 0 0 0 0
0 0 0 0 0 0 0 0 0 0 -0 0 0 0 0 0 -0 -0 0 0 0 0 0 -0 0 0 0 0 0 0 -0 0 0 0 0 -0 0 0 0 0 0 0 0 0 0 0 0 0 0 0 0 0 0 0
0 0 0 0 0 0 0 0 0 0 0 0 0 0 0 0 0 -0 0 0 0 0 0 0 0 0 0 0 0 -0 -0 -0 0 0 0 0 -0 0 0 -0 0 0 0 0 0 0 0 0 0 0 0 0 0 0
0 0 0 0 0 0 0 0 0 0 0 0 0 0 0 0 0 0 0 0 0 0 0 0 0 0 0 0 0 0 0 0 0 0 0 0 -0 0 0 0 0 0 0 0 0 0 -0 -0 0 0 0 0 0 0
0 0 0 0 0 0 0 0 0 0 0 0 0 0 0 0 0 0 0 0 0 0 0 0 0 0 0 0 0 0 0 0 0 0 -0 0 0 0 0 0 0 0 0 0 0 0 0 0 0 0 0 0 0 0
0 0 0 0 0 0 0 0 0 0 0 0 0 0 0 0 0 0 0 0 0 0 0 0 0 0 0 0 0 0 0 0 0 0 0 0 0 0 0 0 -0 0 0 0 0 0 0 0 0 0 0 0 0 0
0 0 0 0 0 0 0 0 0 0 0 0 0 0 0 0 0 0 0 0 0 0 0 0 0 0 0 0 0 0 0 0 0 0 0 0 0 0 0 -0 0 -0 -0 0 0 0 0 0 -0 0 0 0 0 0
0 0 0 0 0 0 0 0 0 0 0 0 0 0 0 0 0 0 0 0 0 0 0 0 0 0 0 0 0 0 0 0 0 0 0 0 0 0 0 -0 -0 -0 -0 0 -0 -0 0 0 0 0 0 0 0 0
0 0 0 0 0 0 0 0 0 0 0 0 0 0 0 0 0 0 0 0 0 0 0 0 0 0 0 0 0 0 0 0 0 0 0 0 0 0 0 0 0 -0 -0 -0 0 0 0 0 0 0 0 0 0 0
0 0 0 0 0 0 0 0 0 0 0 0 0 0 0 0 0 0 0 0 0 0 0 0 0 0 0 0 0 0 0 0 0 0 0 0 0 0 0 0 0 0 0 0 0 0 0 0 0 0 0 0 0 0
Wind_Speed_500mb
35 36 35 34 33 31 30 30 31 29 26 25 23 23 24 23 21 18 16 14 12 15 55 54 42 31 31 19 7 20 22 1 5 6 6 7 5 6 9 4 11 7 7 8 11 15 16 20 17 7 18 20 46 36
36 36 34 33 31 29 31 30 28 27 25 23 25 23 24 26 20 20 26 22 24 32 53 76 86 72 77 75 50 22 20 10 7 2 3 5 6 6 8 5 10 6 7 8 5 6 17 37 43 47 29 41 26 41
37 35 33 31 30 30 29 28 27 26 24 23 24 25 27 23 14 21 34 33 39 29 56 27 38 5 25 22 20 28 17 28 19 29 2 7 12 5 6 9 7 2 5 6 10 9 18 42 53 50 17 30 43 50
35 33 31 30 29 29 29 29 30 29 28 25 24 28 32 19 24 30 40 37 30 21 13 23 32 67 57 42 40 57 65 26 21 10 11 6 7 12 6 9 8 11 5 8 22 31 41 37 29 26 43 52 51 48
32 31 29 28 28 28 29 30 30 28 26 25 25 24 22 27 31 31 40 36 24 23 10 39 75 10 18 14 27 41 56 64 49 12 10 8 11 9 18 7 23 29 19 10 21 43 31 41 46 42 48 40 46 55
30 28 28 29 29 29 28 26 24 25 27 29 22 23 28 29 26 25 11 4 0 2 12 10 27 29 24 28 32 33 47 55 42 16 16 19 45 13 7 8 10 36 46 62 53 66 49 59 48 33 34 49 54 57
27 25 29 29 26 24 25 25 25 26 24 24 30 34 34 28 25 20 11 5 8 16 8 15 17 14 32 23 18 20 17 25 29 16 17 27 26 20 6 14 20 37 36 39 40 38 32 24 23 38 41 47 50 55
25 26 27 26 24 27 27 27 29 29 32 36 39 37 34 29 30 36 21 9 33 34 13 7 10 17 9 13 14 9 9 16 20 13 11 9 5 17 6 11 40 44 44 39 18 22 34 28 32 38 44 45 51 54
24 22 24 24 23 24 27 28 30 34 35 35 35 32 31 15 14 10 13 20 13 20 7 10 6 8 18 12 13 10 7 5 9 6 4 2 2 3 11 33 43 44 34 30 30 29 30 33 31 42 43 45 50 57
26 24 20 22 23 26 27 26 29 33 34 29 23 6 5 7 11 12 1 5 19 14 13 10 10 9 13 8 8 9 6 5 4 1 6 2 3 16 28 42 44 39 30 28 34 30 39 35 42 43 42 45 46 49
29 27 20 26 29 29 28 27 29 31 22 10 6 6 10 18 16 6 7 8 12 9 14 13 21 11 19 8 6 6 5 4 4 5 6 4 3 15 51 47 38 29 29 23 22 27 28 28 33 41 43 42 43 44
28 29 25 27 29 31 24 26 24 22 15 16 19 26 16 4 8 6 6 5 8 7 8 7 13 19 16 12 9 8 5 3 5 13 5 8 4 54 47 45 33 31 29 28 24 26 26 27 27 37 43 45 45 43
30 31 28 27 30 25 24 24 17 18 20 16 5 7 6 6 7 8 9 6 4 6 4 12 10 9 9 10 11 4 4 5 13 7 3 4 32 55 54 50 43 29 31 35 32 31 27 25 29 33 45 48 50 48
25 28 28 25 21 20 20 18 13 11 6 5 6 7 7 8 7 6 2 3 11 12 30 35 15 9 7 4 3 5 5 5 8 8 5 8 47 57 53 50 45 44 37 34 39 38 33 29 28 31 36 44 55 47
17 19 18 16 21 20 16 14 14 14 6 6 7 7 8 8 4 4 16 14 19 25 34 19 9 6 5 5 2 3 7 5 4 6 5 33 46 43 48 49 45 41 39 33 38 34 35 28 25 30 35 40 49 42
18 19 13 11 10 14 12 11 17 15 6 8 11 8 13 3 13 17 20 28 31 34 34 3 3 3 2 6 3 5 6 3 7 7 29 36 38 41 46 45 42 37 32 28 31 32 35 30 27 29 33 38 41 37
21 22 11 14 16 18 13 11 15 11 9 8 13 23 32 31 29 37 28 30 31 22 4 5 6 1 4 2 3 2 6 6 20 38 39 35 39 46 44 40 41 35 29 26 29 25 26 29 31 35 40 48 36 36
23 14 14 17 14 16 7 18 10 10 13 23 15 33 33 37 36 43 43 35 22 8 5 5 7 3 4 5 4 5 8 28 30 31 37 40 41 37 34 41 45 24 24 25 26 25 23 23 33 38 39 45 40 41
21 17 16 14 13 6 5 11 15 9 27 24 30 43 44 43 48 43 38 33 32 29 11 8 6 6 7 8 5 9 14 26 35 41 40 47 35 35 37 47 37 18 21 23 31 37 34 30 32 34 38 47 50 53
19 18 15 15 13 5 5 7 9 11 10 11 22 30 24 31 40 39 35 32 32 13 14 8 8 10 11 11 20 17 28 35 38 44 46 48 32 39 33 47 26 18 15 18 25 31 37 39 40 38 41 48 55 56
14 11 15 19 16 14 8 8 11 12 13 13 21 22 17 25 34 37 40 35 26 16 12 30 35 35 28 41 35 33 34 34 35 40 42 46 31 35 26 36 23 13 11 14 20 26 31 38 36 37 40 46 50 51
11 11 11 18 17 11 14 17 12 10 11 17 20 20 17 11 16 23 25 28 30 52 46 46 51 49 44 45 52 45 34 30 29 32 35 31 29 34 27 28 31 12 8 9 13 17 23 30 30 29 35 41 45 51
9 11 11 11 11 21 7 11 10 9 6 8 6 6 8 9 11 9 9 16 23 45 51 60 63 53 48 47 40 32 31 31 28 28 27 28 30 29 25 23 30 11 3 9 10 11 16 22 25 27 29 33 40 46
13 7 6 8 12 6 6 10 11 9 9 6 5 7 7 10 6 8 7 11 31 34 35 42 49 52 52 43 36 31 26 25 26 25 26 27 26 19 17 18 13 5 8 6 6 9 13 20 23 25 28 32 38 43
8 10 8 9 9 7 8 6 9 6 7 8 5 8 5 6 4 6 6 9 10 14 18 33 40 50 50 38 34 29 22 19 17 23 27 24 18 16 11 7 2 2 8 0 4 4 7 13 18 22 23 28 33 36
8 13 13 12 8 8 5 4 4 4 5 5 8 9 7 6 7 8 5 4 5 10 9 12 33 40 42 39 34 34 30 22 21 25 24 22 15 13 8 11 6 11 7 6 6 1 8 9 9 14 19 20 25 29
7 8 17 16 9 7 4 10 15 10 7 7 5 5 5 7 7 5 11 6 7 8 13 8 19 32 36 30 28 23 24 24 21 20 19 10 16 16 15 3 3 9 8 5 6 3 5 11 11 9 12 16 18 22
15 8 8 9 8 7 6 5 5 5 6 9 8 5 7 8 4 14 16 23 8 15 17 17 21 22 23 23 15 12 14 14 11 15 12 17 17 22 21 14 8 7 13 14 8 3 11 10 9 11 12 13 15 18
9 7 8 5 10 11 10 10 7 8 8 5 6 4 6 9 33 27 30 15 2 8 13 18 20 19 18 13 12 13 14 12 11 18 24 21 21 28 22 22 18 11 14 15 14 11 12 15 12 12 11 10 11 13
10 20 8 6 6 8 10 16 11 19 30 33 18 14 23 19 25 41 30 22 15 10 12 16 19 18 15 16 22 19 16 14 12 15 17 17 20 25 24 22 18 14 16 21 20 20 14 15 12 8 5 6 4 1
6 18 8 9 7 9 16 20 27 30 34 21 24 14 11 15 24 55 42 37 35 43 46 42 39 31 31 34 29 23 16 10 11 12 13 12 12 14 18 17 20 20 15 15 24 26 23 21 23 20 17 19 18 17
12 14 6 5 5 7 5 5 7 6 10 15 14 24 26 16 20 42 45 35 35 38 34 31 21 23 22 25 26 21 9 6 6 8 12 11 9 11 12 15 18 16 14 13 18 26 32 34 33 32 33 34 30 23
8 11 7 4 1 4 3 4 6 7 10 18 25 30 24 12 15 35 40 42 44 38 35 27 28 28 20 8 7 9 8 6 6 8 8 9 7 5 7 10 9 10 14 18 20 15 20 24 22 20 13 8 6 5
Wind_Direction_500mb
284 289 292 293 293 294 296 300 303 304 306 314 321 322 323 325 318 323 304 313 306 268 283 275 269 257 257 238 218 305 332 210 299 269 313 344 310 57 326 321 289 281 274 216 216 217 228 72 344 264 242 289 294 291
284 287 288 288 289 292 297 304 305 304 305 304 311 314 310 311 302 317 303 310 295 279 272 292 290 280 263 259 258 244 239 302 274 323 360 345 312 282 241 272 203 264 229 298 246 262 218 266 254 275 282 280 287 306
283 284 284 287 290 291 293 297 301 305 305 306 307 309 306 311 323 298 297 302 305 295 307 282 303 274 236 230 262 230 238 221 227 231 221 234 251 252 238 241 256 274 11 295 325 275 272 289 292 292 291 304 311 310
281 281 284 287 288 288 288 290 296 298 296 295 293 291 299 302 295 290 287 293 292 292 284 288 303 298 299 280 249 246 249 241 236 240 231 247 253 223 255 263 230 227 285 263 264 288 289 293 290 303 312 309 312 311
277 280 283 285 287 288 291 293 296 299 300 298 296 300 303 295 295 291 290 296 271 231 277 295 306 324 315 273 262 254 243 240 241 239 220 239 236 237 249 244 258 234 248 226 260 269 278 281 300 306 308 312 311 310
276 280 283 286 288 290 292 296 301 304 300 300 297 298 294 297 298 315 313 183 306 156 303 300 311 275 288 313 302 262 246 232 216 208 226 229 239 219 257 251 263 253 254 255 260 277 282 289 296 308 305 313 312 310
277 280 284 291 292 297 301 303 302 299 299 301 296 293 289 286 277 262 248 259 251 315 304 297 295 290 322 329 309 281 228 202 200 214 225 242 251 203 247 265 342 321 306 306 298 297 285 293 310 319 315 311 313 311
275 281 286 289 290 290 291 289 291 294 294 297 299 296 291 283 271 265 276 265 255 263 244 271 276 303 320 309 308 284 239 207 215 238 243 218 195 194 252 311 314 313 306 302 296 312 305 311 313 317 319 321 320 321
265 276 284 287 291 301 305 305 301 298 299 302 299 297 291 257 222 244 187 296 263 205 221 230 285 280 328 308 284 282 253 245 227 238 236 351 351 19 279 312 314 316 334 329 328 326 318 317 317 325 327 327 327 328
260 268 278 281 288 301 310 302 300 303 307 307 305 277 228 201 227 267 288 196 191 209 233 248 228 265 302 303 287 298 253 245 257 88 316 179 132 311 341 328 334 345 324 329 330 332 327 328 333 333 331 332 332 330
258 263 274 275 281 296 303 297 303 307 311 325 311 264 255 287 302 200 222 219 188 228 214 234 228 256 281 236 266 250 282 261 271 10 321 42 320 348 335 349 345 349 355 352 341 338 338 336 336 339 341 341 341 340
266 259 268 272 287 295 290 293 300 289 298 311 303 293 294 231 202 213 212 225 226 247 201 227 246 248 274 252 256 245 283 278 355 319 41 343 312 329 343 350 345 348 334 329 339 344 352 353 348 358 2 359 355 350
268 268 266 277 286 284 281 286 272 273 296 307 239 239 222 218 227 221 207 195 236 309 283 282 290 262 265 254 268 283 294 325 301 37 293 291 314 326 340 350 357 352 350 342 330 330 325 339 358 356 357 358 355 353
264 270 277 279 281 282 276 267 251 265 289 259 257 275 222 200 230 201 225 207 247 249 305 295 270 234 254 277 280 311 329 350 39 1 302 331 322 331 349 4 3 6 360 355 349 342 334 328 339 355 355 356 357 356
272 270 270 276 287 288 268 244 227 237 227 246 238 247 234 251 276 182 281 269 298 312 322 292 258 252 278 271 322 350 27 37 201 250 262 313 327 339 356 1 5 5 359 358 0 4 357 349 345 349 350 349 352 3
268 271 280 284 245 287 251 217 209 222 223 236 235 258 250 266 273 272 300 306 328 334 333 256 280 272 272 308 214 21 97 218 256 240 313 334 344 351 353 357 3 359 358 359 10 17 22 26 20 10 3 2 8 16
251 258 268 275 259 281 244 191 193 206 228 232 247 242 254 271 267 269 287 297 313 328 302 322 317 306 305 11 356 231 174 233 292 311 323 329 328 335 345 355 356 351 6 8 8 12 21 26 21 17 20 16 24 24
245 252 261 274 273 284 288 204 200 222 238 244 248 258 246 253 261 273 282 288 292 294 288 249 303 284 247 173 274 257 289 335 341 330 332 337 345 351 357 357 353 6 38 30 28 16 9 9 13 21 25 21 32 38
254 249 252 263 255 267 235 221 200 246 235 246 258 262 265 270 275 278 278 267 270 279 261 236 229 212 225 209 215 318 339 346 335 337 339 350 351 356 6 1 10 53 54 44 43 39 37 37 36 37 33 31 39 38
245 230 232 229 240 221 258 263 225 257 259 255 253 262 255 262 278 279 279 270 262 233 202 216 212 224 208 229 317 305 315 320 327 330 332 342 350 356 9 6 25 42 44 38 43 41 44 50 48 42 38 37 38 39
225 233 215 217 230 230 258 241 245 242 264 258 273 269 266 262 263 259 261 263 225 213 219 231 242 240 254 275 283 282 286 296 305 314 316 326 337 353 350 1 15 25 27 29 34 36 36 43 45 45 44 46 45 44
236 217 210 219 220 219 248 232 232 280 270 263 281 262 254 255 256 256 254 220 236 243 241 240 242 243 248 253 262 266 276 286 291 294 309 319 321 338 342 343 354 349 22 44 31 33 36 38 41 48 48 50 51 51
221 225 235 222 234 206 246 210 222 235 245 254 266 256 241 238 241 236 242 226 230 238 242 236 237 241 237 243 253 257 263 275 278 279 292 308 313 318 324 326 335 354 73 75 44 50 49 52 53 57 56 55 53 54
215 237 231 220 215 239 217 219 222 250 253 252 244 263 255 235 248 236 244 245 256 259 245 237 233 228 230 237 249 250 253 252 261 263 275 298 309 308 296 321 1 23 148 85 48 64 69 66 63 62 59 56 55 54
241 209 208 221 231 238 224 228 206 226 250 221 242 246 258 250 243 249 240 257 261 302 255 231 231 228 226 230 236 240 236 254 261 262 271 293 294 283 290 299 83 279 173 15 9 32 76 76 65 59 61 59 55 55
217 211 206 205 214 206 241 281 281 292 311 265 252 252 252 233 228 244 241 268 264 330 351 222 217 216 223 234 234 226 225 238 257 271 266 288 246 241 196 254 251 236 219 236 291 13 108 101 75 57 54 61 60 55
251 233 222 224 235 209 263 268 266 251 254 256 250 256 242 230 240 253 279 320 272 261 285 252 203 210 219 223 228 237 255 261 269 266 272 263 197 207 201 204 209 215 234 252 267 343 136 101 90 72 56 58 73 70
237 262 202 200 221 252 247 234 256 247 244 249 276 275 296 323 302 330 333 350 316 261 234 208 195 193 202 209 236 272 246 251 252 240 236 184 190 193 188 187 194 230 243 244 248 109 121 113 93 87 80 66 81 81
234 224 208 235 208 222 233 216 245 245 260 293 271 273 288 285 302 338 3 7 311 247 210 187 186 190 191 214 232 202 213 231 258 203 183 190 204 194 192 195 223 249 207 184 197 184 123 102 98 99 96 88 84 89
237 203 217 227 207 232 240 214 250 286 299 305 291 268 284 307 359 23 41 60 77 116 170 184 196 201 205 175 149 153 153 153 175 198 193 183 183 192 199 205 219 223 207 205 200 194 187 181 184 183 218 255 246 232
206 189 225 222 252 270 282 283 280 289 298 304 325 301 311 329 24 41 64 70 93 107 105 101 102 112 131 126 118 108 109 148 171 166 173 161 165 187 203 221 225 211 227 220 221 220 225 226 229 238 254 270 272 264
194 199 233 233 251 297 284 306 315 310 343 345 349 18 29 35 38 32 49 75 81 81 90 84 77 73 74 87 96 96 66 57 98 156 184 209 179 175 194 209 208 212 206 226 239 239 243 243 247 254 260 260 271 280
164 205 222 186 122 301 279 331 358 12 18 8 13 24 25 40 43 17 40 55 55 51 64 73 65 75 94 122 65 40 26 71 122 169 169 174 173 188 199 210 220 230 243 240 242 260 254 247 244 241 231 203 177 313
Wind_Speed_850mb
35 36 35 34 33 31 30 30 31 29 26 25 23 23 24 23 21 18 16 14 12 15 55 54 42 31 31 19 7 20 22 1 5 6 6 7 5 6 9 4 11 7 7 8 11 15 16 20 17 7 18 20 46 36
36 36 34 33 31 29 31 30 28 27 25 23 25 23 24 26 20 20 26 22 24 32 53 76 86 72 77 75 50 22 20 10 7 2 3 5 6 6 8 5 10 6 7 8 5 6 17 37 43 47 29 41 26 41
37 35 33 31 30 30 29 28 27 26 24 23 24 25 27 23 14 21 34 33 39 29 56 27 38 5 25 22 20 28 17 28 19 29 2 7 12 5 6 9 7 2 5 6 10 9 18 42 53 50 17 30 43 50
35 33 31 30 29 29 29 29 30 29 28 25 24 28 32 19 24 30 40 37 30 21 13 23 32 67 57 42 40 57 65 26 21 10 11 6 7 12 6 9 8 11 5 8 22 31 41 37 29 26 43 52 51 48
32 31 29 28 28 28 29 30 30 28 26 25 25 24 22 27 31 31 40 36 24 23 10 39 75 10 18 14 27 41 56 64 49 12 10 8 11 9 18 7 23 29 19 10 21 43 31 41 46 42 48 40 46 55
30 28 28 29 29 29 28 26 24 25 27 29 22 23 28 29 26 25 11 4 0 2 12 10 27 29 24 28 32 33 47 55 42 16 16 19 45 13 7 8 10 36 46 62 53 66 49 59 48 33 34 49 54 57
27 25 29 29 26 24 25 25 25 26 24 24 30 34 34 28 25 20 11 5 8 16 8 15 17 14 32 23 18 20 17 25 29 16 17 27 26 20 6 14 20 37 36 39 40 38 32 24 23 38 41 47 50 55
25 26 27 26 24 27 27 27 29 29 32 36 39 37 34 29 30 36 21 9 33 34 13 7 10 17 9 13 14 9 9 16 20 13 11 9 5 17 6 11 40 44 44 39 18 22 34 28 32 38 44 45 51 54
24 22 24 24 23 24 27 28 30 34 35 35 35 32 31 15 14 10 13 20 13 20 7 10 6 8 18 12 13 10 7 5 9 6 4 2 2 3 11 33 43 44 34 30 30 29 30 33 31 42 43 45 50 57
26 24 20 22 23 26 27 26 29 33 34 29 23 6 5 7 11 12 1 5 19 14 13 10 10 9 13 8 8 9 6 5 4 1 6 2 3 16 28 42 44 39 30 28 34 30 39 35 42 43 42 45 46 49
29 27 20 26 29 29 28 27 29 31 22 10 6 6 10 18 16 6 7 8 12 9 14 13 21 11 19 8 6 6 5 4 4 5 6 4 3 15 51 47 38 29 29 23 22 27 28 28 33 41 43 42 43 44
28 29 25 27 29 31 24 26 24 22 15 16 19 26 16 4 8 6 6 5 8 7 8 7 13 19 16 12 9 8 5 3 5 13 5 8 4 54 47 45 33 31 29 28 24 26 26 27 27 37 43 45 45 43
30 31 28 27 30 25 24 24 17 18 20 16 5 7 6 6 7 8 9 6 4 6 4 12 10 9 9 10 11 4 4 5 13 7 3 4 32 55 54 50 43 29 31 35 32 31 27 25 29 33 45 48 50 48
25 28 28 25 21 20 20 18 13 11 6 5 6 7 7 8 7 6 2 3 11 12 30 35 15 9 7 4 3 5 5 5 8 8 5 8 47 57 53 50 45 44 37 34 39 38 33 29 28 31 36 44 55 47
17 19 18 16 21 20 16 14 14 14 6 6 7 7 8 8 4 4 16 14 19 25 34 19 9 6 5 5 2 3 7 5 4 6 5 33 46 43 48 49 45 41 39 33 38 34 35 28 25 30 35 40 49 42
18 19 13 11 10 14 12 11 17 15 6 8 11 8 13 3 13 17 20 28 31 34 34 3 3 3 2 6 3 5 6 3 7 7 29 36 38 41 46 45 42 37 32 28 31 32 35 30 27 29 33 38 41 37
21 22 11 14 16 18 13 11 15 11 9 8 13 23 32 31 29 37 28 30 31 22 4 5 6 1 4 2 3 2 6 6 20 38 39 35 39 46 44 40 41 35 29 26 29 25 26 29 31 35 40 48 36 36
23 14 14 17 14 16 7 18 10 10 13 23 15 33 33 37 36 43 43 35 22 8 5 5 7 3 4 5 4 5 8 28 30 31 37 40 41 37 34 41 45 24 24 25 26 25 23 23 33 38 39 45 40 41
21 17 16 14 13 6 5 11 15 9 27 24 30 43 44 43 48 43 38 33 32 29 11 8 6 6 7 8 5 9 14 26 35 41 40 47 35 35 37 47 37 18 21 23 31 37 34 30 32 34 38 47 50 53
19 18 15 15 13 5 5 7 9 11 10 11 22 30 24 31 40 39 35 32 32 13 14 8 8 10 11 11 20 17 28 35 38 44 46 48 32 39 33 47 26 18 15 18 25 31 37 39 40 38 41 48 55 56
14 11 15 19 16 14 8 8 11 12 13 13 21 22 17 25 34 37 40 35 26 16 12 30 35 35 28 41 35 33 34 34 35 40 42 46 31 35 26 36 23 13 11 14 20 26 31 38 36 37 40 46 50 51
11 11 11 18 17 11 14 17 12 10 11 17 20 20 17 11 16 23 25 28 30 52 46 46 51 49 44 45 52 45 34 30 29 32 35 31 29 34 27 28 31 12 8 9 13 17 23 30 30 29 35 41 45 51
9 11 11 11 11 21 7 11 10 9 6 8 6 6 8 9 11 9 9 16 23 45 51 60 63 53 48 47 40 32 31 31 28 28 27 28 30 29 25 23 30 11 3 9 10 11 16 22 25 27 29 33 40 46
13 7 6 8 12 6 6 10 11 9 9 6 5 7 7 10 6 8 7 11 31 34 35 42 49 52 52 43 36 31 26 25 26 25 26 27 26 19 17 18 13 5 8 6 6 9 13 20 23 25 28 32 38 43
8 10 8 9 9 7 8 6 9 6 7 8 5 8 5 6 4 6 6 9 10 14 18 33 40 50 50 38 34 29 22 19 17 23 27 24 18 16 11 7 2 2 8 0 4 4 7 13 18 22 23 28 33 36
8 13 13 12 8 8 5 4 4 4 5 5 8 9 7 6 7 8 5 4 5 10 9 12 33 40 42 39 34 34 30 22 21 25 24 22 15 13 8 11 6 11 7 6 6 1 8 9 9 14 19 20 25 29
7 8 17 16 9 7 4 10 15 10 7 7 5 5 5 7 7 5 11 6 7 8 13 8 19 32 36 30 28 23 24 24 21 20 19 10 16 16 15 3 3 9 8 5 6 3 5 11 11 9 12 16 18 22
15 8 8 9 8 7 6 5 5 5 6 9 8 5 7 8 4 14 16 23 8 15 17 17 21 22 23 23 15 12 14 14 11 15 12 17 17 22 21 14 8 7 13 14 8 3 11 10 9 11 12 13 15 18
9 7 8 5 10 11 10 10 7 8 8 5 6 4 6 9 33 27 30 15 2 8 13 18 20 19 18 13 12 13 14 12 11 18 24 21 21 28 22 22 18 11 14 15 14 11 12 15 12 12 11 10 11 13
10 20 8 6 6 8 10 16 11 19 30 33 18 14 23 19 25 41 30 22 15 10 12 16 19 18 15 16 22 19 16 14 12 15 17 17 20 25 24 22 18 14 16 21 20 20 14 15 12 8 5 6 4 1
6 18 8 9 7 9 16 20 27 30 34 21 24 14 11 15 24 55 42 37 35 43 46 42 39 31 31 34 29 23 16 10 11 12 13 12 12 14 18 17 20 20 15 15 24 26 23 21 23 20 17 19 18 17
12 14 6 5 5 7 5 5 7 6 10 15 14 24 26 16 20 42 45 35 35 38 34 31 21 23 22 25 26 21 9 6 6 8 12 11 9 11 12 15 18 16 14 13 18 26 32 34 33 32 33 34 30 23
8 11 7 4 1 4 3 4 6 7 10 18 25 30 24 12 15 35 40 42 44 38 35 27 28 28 20 8 7 9 8 6 6 8 8 9 7 5 7 10 9 10 14 18 20 15 20 24 22 20 13 8 6 5
Wind_Direction_850mb
284 289 292 293 293 294 296 300 303 304 306 314 321 322 323 325 318 323 304 313 306 268 283 275 269 257 257 238 218 305 332 210 299 269 313 344 310 57 326 321 289 281 274 216 216 217 228 72 344 264 242 289 294 291
284 287 288 288 289 292 297 304 305 304 305 304 311 314 310 311 302 317 303 310 295 279 272 292 290 280 263 259 258 244 239 302 274 323 360 345 312 282 241 272 203 264 229 298 246 262 218 266 254 275 282 280 287 306
283 284 284 287 290 291 293 297 301 305 305 306 307 309 306 311 323 298 297 302 305 295 307 282 303 274 236 230 262 230 238 221 227 231 221 234 251 252 238 241 256 274 11 295 325 275 272 289 292 292 291 304 311 310
281 281 284 287 288 288 288 290 296 298 296 295 293 291 299 302 295 290 287 293 292 292 284 288 303 298 299 280 249 246 249 241 236 240 231 247 253 223 255 263 230 227 285 263 264 288 289 293 290 303 312 309 312 311
277 280 283 285 287 288 291 293 296 299 300 298 296 300 303 295 295 291 290 296 271 231 277 295 306 324 315 273 262 254 243 240 241 239 220 239 236 237 249 244 258 234 248 226 260 269 278 281 300 306 308 312 311 310
276 280 283 286 288 290 292 296 301 304 300 300 297 298 294 297 298 315 313 183 306 156 303 300 311 275 288 313 302 262 246 232 216 208 226 229 239 219 257 251 263 253 254 255 260 277 282 289 296 308 305 313 312 310
277 280 284 291 292 297 301 303 302 299 299 301 296 293 289 286 277 262 248 259 251 315 304 297 295 290 322 329 309 281 228 202 200 214 225 242 251 203 247 265 342 321 306 306 298 297 285 293 310 319 315 311 313 311
275 281 286 289 290 290 291 289 291 294 294 297 299 296 291 283 271 265 276 265 255 263 244 271 276 303 320 309 308 284 239 207 215 238 243 218 195 194 252 311 314 313 306 302 296 312 305 311 313 317 319 321 320 321
265 276 284 287 291 301 305 305 301 298 299 302 299 297 291 257 222 244 187 296 263 205 221 230 285 280 328 308 284 282 253 245 227 238 236 351 351 19 279 312 314 316 334 329 328 326 318 317 317 325 327 327 327 328
260 268 278 281 288 301 310 302 300 303 307 307 305 277 228 201 227 267 288 196 191 209 233 248 228 265 302 303 287 298 253 245 257 88 316 179 132 311 341 328 334 345 324 329 330 332 327 328 333 333 331 332 332 330
258 263 274 275 281 296 303 297 303 307 311 325 311 264 255 287 302 200 222 219 188 228 214 234 228 256 281 236 266 250 282 261 271 10 321 42 320 348 335 349 345 349 355 352 341 338 338 336 336 339 341 341 341 340
266 259 268 272 287 295 290 293 300 289 298 311 303 293 294 231 202 213 212 225 226 247 201 227 246 248 274 252 256 245 283 278 355 319 41 343 312 329 343 350 345 348 334 329 339 344 352 353 348 358 2 359 355 350
268 268 266 277 286 284 281 286 272 273 296 307 239 239 222 218 227 221 207 195 236 309 283 282 290 262 265 254 268 283 294 325 301 37 293 291 314 326 340 350 357 352 350 342 330 330 325 339 358 356 357 358 355 353
264 270 277 279 281 282 276 267 251 265 289 259 257 275 222 200 230 201 225 207 247 249 305 295 270 234 254 277 280 311 329 350 39 1 302 331 322 331 349 4 3 6 360 355 349 342 334 328 339 355 355 356 357 356
272 270 270 276 287 288 268 244 227 237 227 246 238 247 234 251 276 182 281 269 298 312 322 292 258 252 278 271 322 350 27 37 201 250 262 313 327 339 356 1 5 5 359 358 0 4 357 349 345 349 350 349 352 3
268 271 280 284 245 287 251 217 209 222 223 236 235 258 250 266 273 272 300 306 328 334 333 256 280 272 272 308 214 21 97 218 256 240 313 334 344 351 353 357 3 359 358 359 10 17 22 26 20 10 3 2 8 16
251 258 268 275 259 281 244 191 193 206 228 232 247 242 254 271 267 269 287 297 313 328 302 322 317 306 305 11 356 231 174 233 292 311 323 329 328 335 345 355 356 351 6 8 8 12 21 26 21 17 20 16 24 24
245 252 261 274 273 284 288 204 200 222 238 244 248 258 246 253 261 273 282 288 292 294 288 249 303 284 247 173 274 257 289 335 341 330 332 337 345 351 357 357 353 6 38 30 28 16 9 9 13 21 25 21 32 38
254 249 252 263 255 267 235 221 200 246 235 246 258 262 265 270 275 278 278 267 270 279 261 236 229 212 225 209 215 318 339 346 335 337 339 350 351 356 6 1 10 53 54 44 43 39 37 37 36 37 33 31 39 38
245 230 232 229 240 221 258 263 225 257 259 255 253 262 255 262 278 279 279 270 262 233 202 216 212 224 208 229 317 305 315 320 327 330 332 342 350 356 9 6 25 42 44 38 43 41 44 50 48 42 38 37 38 39
225 233 215 217 230 230 258 241 245 242 264 258 273 269 266 262 263 259 261 263 225 213 219 231 242 240 254 275 283 282 286 296 305 314 316 326 337 353 350 1 15 25 27 29 34 36 36 43 45 45 44 46 45 44
236 217 210 219 220 219 248 232 232 280 270 263 281 262 254 255 256 256 254 220 236 243 241 240 242 243 248 253 262 266 276 286 291 294 309 319 321 338 342 343 354 349 22 44 31 33 36 38 41 48 48 50 51 51
221 225 235 222 234 206 246 210 222 235 245 254 266 256 241 238 241 236 242 226 230 238 242 236 237 241 237 243 253 257 263 275 278 279 292 308 313 318 324 326 335 354 73 75 44 50 49 52 53 57 56 55 53 54
215 237 231 220 215 239 217 219 222 250 253 252 244 263 255 235 248 236 244 245 256 259 245 237 233 228 230 237 249 250 253 252 261 263 275 298 309 308 296 321 1 23 148 85 48 64 69 66 63 62 59 56 55 54
241 209 208 221 231 238 224 228 206 226 250 221 242 246 258 250 243 249 240 257 261 302 255 231 231 228 226 230 236 240 236 254 261 262 271 293 294 283 290 299 83 279 173 15 9 32 76 76 65 59 61 59 55 55
217 211 206 205 214 206 241 281 281 292 311 265 252 252 252 233 228 244 241 268 264 330 351 222 217 216 223 234 234 226 225 238 257 271 266 288 246 241 196 254 251 236 219 236 291 13 108 101 75 57 54 61 60 55
251 233 222 224 235 209 263 268 266 251 254 256 250 256 242 230 240 253 279 320 272 261 285 252 203 210 219 223 228 237 255 261 269 266 272 263 197 207 201 204 209 215 234 252 267 343 136 101 90 72 56 58 73 70
237 262 202 200 221 252 247 234 256 247 244 249 276 275 296 323 302 330 333 350 316 261 234 208 195 193 202 209 236 272 246 251 252 240 236 184 190 193 188 187 194 230 243 244 248 109 121 113 93 87 80 66 81 81
234 224 208 235 208 222 233 216 245 245 260 293 271 273 288 285 302 338 3 7 311 247 210 187 186 190 191 214 232 202 213 231 258 203 183 190 204 194 192 195 223 249 207 184 197 184 123 102 98 99 96 88 84 89
237 203 217 227 207 232 240 214 250 286 299 305 291 268 284 307 359 23 41 60 77 116 170 184 196 201 205 175 149 153 153 153 175 198 193 183 183 192 199 205 219 223 207 205 200 194 187 181 184 183 218 255 246 232
206 189 225 222 252 270 282 283 280 289 298 304 325 301 311 329 24 41 64 70 93 107 105 101 102 112 131 126 118 108 109 148 171 166 173 161 165 187 203 221 225 211 227 220 221 220 225 226 229 238 254 270 272 264
194 199 233 233 251 297 284 306 315 310 343 345 349 18 29 35 38 32 49 75 81 81 90 84 77 73 74 87 96 96 66 57 98 156 184 209 179 175 194 209 208 212 206 226 239 239 243 243 247 254 260 260 271 280
164 205 222 186 122 301 279 331 358 12 18 8 13 24 25 40 43 17 40 55 55 51 64 73 65 75 94 122 65 40 26 71 122 169 169 174 173 188 199 210 220 230 243 240 242 260 254 247 244 241 231 203 177 313